Jackson, MN

9:45 AM CDT on June 28, 2017 (GMT -0500)
Jackson Municipal

Weather History for KMJQ - June, 2013

Change the Weather History Date:

Wednesday, June 26, 2013

  Actual Average Record
Temperature  
Mean Temperature 78 °F -  
Max Temperature 87 °F 79 °F 91 °F (1999)
Min Temperature 69 °F 58 °F 44 °F (2004)
Cooling Degree Days 13    
Growing Degree Days 28 (Base 50)    
Moisture  
Dew Point 63 °F    
Average Humidity 63    
Maximum Humidity 94    
Minimum Humidity 27    
Precipitation  
Precipitation 0.00 in - - ()
Sea Level Pressure  
Sea Level Pressure 29.79 in    
Wind  
Wind Speed 8 mph (WNW)    
Max Wind Speed 23 mph    
Max Gust Speed 29 mph    
Visibility 9 miles    
Events Thunderstorm    
Averages and records for this station are not official NWS values.
T = Trace of Precipitation, MM = Missing Value Source: NWS Daily Summary

Daily Weather History Graph

Daily Weather History Graph

Search for Another Location

Airport or City:

Trip Planner

Search our weather history database for the weather conditions in past years. The results will help you decide how hot, cold, wet, or windy it might be!

Date:

Astronomy

Jun. 26, 2013 Rise Set
Actual Time 5:40 AM CDT 9:05 PM CDT
Civil Twilight 5:04 AM CDT 9:41 PM CDT
Nautical Twilight 4:17 AM CDT 10:28 PM CDT
Astronomical Twilight 3:17 AM CDT 11:27 PM CDT
Moon 11:20 PM CDT (6/26) 9:40 AM CDT (6/26)
Length of Visible Light 16h 37m
Length of Day
15h 25m
Waning Gibbous, 85% of the Moon is Illuminated
Jun 26
Waning Gibbous
Jun 29
Last Quarter
Jul 8
New
Jul 15
First Quarter
Jul 22
Full

Hourly Weather History & Observations

Time (CDT) Temp. Heat Index Dew Point Humidity Pressure Visibility Wind Dir Wind Speed Gust Speed Precip Events Conditions
12:14 AM 73.4 °F - 68.0 °F 83% 29.72 in 10.0 mi South 6.9 mph - N/A   Clear
12:34 AM 73.4 °F - 68.0 °F 83% 29.71 in 10.0 mi South 6.9 mph - N/A   Clear
12:54 AM 73.4 °F - 68.0 °F 83% 29.72 in 10.0 mi South 5.8 mph - N/A   Clear
1:14 AM 73.4 °F - 68.0 °F 83% 29.71 in 10.0 mi South 4.6 mph - N/A   Clear
1:34 AM 73.4 °F - 68.0 °F 83% 29.71 in 10.0 mi South 5.8 mph - N/A   Clear
1:54 AM 73.4 °F - 68.0 °F 83% 29.71 in 10.0 mi South 5.8 mph - N/A   Clear
2:14 AM 71.6 °F - 68.0 °F 88% 29.70 in 10.0 mi South 5.8 mph - N/A   Clear
2:34 AM 71.6 °F - 68.0 °F 88% 29.69 in 10.0 mi South 3.5 mph - N/A   Clear
2:54 AM 71.6 °F - 68.0 °F 88% 29.70 in 10.0 mi Calm Calm - N/A   Clear
3:14 AM 71.6 °F - 68.0 °F 88% 29.69 in 7.0 mi Calm Calm - N/A   Clear
3:34 AM 71.6 °F - 68.0 °F 88% 29.70 in 7.0 mi Calm Calm - N/A   Clear
3:54 AM 69.8 °F - 68.0 °F 94% 29.71 in 5.0 mi Calm Calm - N/A   Scattered Clouds
4:14 AM 71.6 °F - 68.0 °F 88% 29.70 in 7.0 mi Calm Calm - N/A   Scattered Clouds
4:34 AM 71.6 °F - 68.0 °F 88% 29.69 in 7.0 mi Calm Calm - N/A   Mostly Cloudy
4:54 AM 71.6 °F - 69.8 °F 94% 29.71 in 5.0 mi SW 4.6 mph - N/A   Scattered Clouds
5:14 AM 71.6 °F - 69.8 °F 94% 29.70 in 5.0 mi South 4.6 mph - N/A   Mostly Cloudy
5:34 AM 71.6 °F - 69.8 °F 94% 29.71 in 5.0 mi SSW 3.5 mph - N/A   Overcast
5:54 AM 71.6 °F - 69.8 °F 94% 29.71 in 4.0 mi South 5.8 mph - N/A   Mostly Cloudy
6:14 AM 71.6 °F - 68.0 °F 88% 29.71 in 3.0 mi West 3.5 mph - N/A   Mostly Cloudy
6:34 AM 71.6 °F - 68.0 °F 88% 29.72 in 3.0 mi Calm Calm - N/A   Mostly Cloudy
6:54 AM 73.4 °F - 69.8 °F 88% 29.73 in 5.0 mi West 4.6 mph - N/A   Mostly Cloudy
7:13 AM 73.4 °F - 69.8 °F 88% 29.73 in 5.0 mi WSW 3.5 mph - N/A   Mostly Cloudy
7:34 AM 73.4 °F - 69.8 °F 88% 29.73 in 7.0 mi West 3.5 mph - N/A Thunderstorm Scattered Clouds
7:54 AM 75.2 °F - 69.8 °F 83% 29.73 in 7.0 mi West 5.8 mph - N/A   Clear
8:14 AM 77.0 °F - 69.8 °F 78% 29.73 in 10.0 mi WNW 6.9 mph - N/A   Clear
8:34 AM 77.0 °F - 68.0 °F 74% 29.74 in 10.0 mi WNW 11.5 mph - N/A Thunderstorm Clear
8:54 AM 78.8 °F - 68.0 °F 69% 29.75 in 10.0 mi NW 11.5 mph - N/A   Clear
9:14 AM 78.8 °F - 68.0 °F 69% 29.75 in 10.0 mi NW 9.2 mph - N/A   Clear
9:34 AM 78.8 °F - 69.8 °F 74% 29.76 in 10.0 mi NW 8.1 mph - N/A   Scattered Clouds
9:54 AM 78.8 °F - 69.8 °F 74% 29.77 in 10.0 mi WNW 10.4 mph - N/A   Scattered Clouds
10:14 AM 78.8 °F - 68.0 °F 69% 29.77 in 10.0 mi WNW 10.4 mph - N/A   Scattered Clouds
10:34 AM 80.6 °F 83.2 °F 68.0 °F 65% 29.77 in 10.0 mi WNW 11.5 mph 16.1 mph N/A   Scattered Clouds
10:54 AM 80.6 °F 83.2 °F 68.0 °F 65% 29.78 in 10.0 mi WNW 10.4 mph 20.7 mph N/A   Scattered Clouds
11:14 AM 80.6 °F 83.2 °F 68.0 °F 65% 29.79 in 10.0 mi WNW 16.1 mph 20.7 mph N/A   Scattered Clouds
11:34 AM 80.6 °F 83.2 °F 68.0 °F 65% 29.79 in 10.0 mi NW 12.7 mph - N/A   Scattered Clouds
11:54 AM 82.4 °F 85.4 °F 68.0 °F 62% 29.79 in 10.0 mi NW 13.8 mph 18.4 mph N/A   Scattered Clouds
12:14 PM 82.4 °F 85.4 °F 68.0 °F 62% 29.81 in 10.0 mi NW 15.0 mph 23.0 mph N/A   Scattered Clouds
12:34 PM 82.4 °F 84.6 °F 66.2 °F 58% 29.81 in 10.0 mi NNW 19.6 mph 25.3 mph N/A   Scattered Clouds
12:53 PM 84.2 °F 85.0 °F 62.6 °F 48% 29.81 in 10.0 mi NW 20.7 mph 25.3 mph N/A   Scattered Clouds
1:14 PM 84.2 °F 84.4 °F 60.8 °F 45% 29.81 in 10.0 mi NW 19.6 mph 24.2 mph N/A   Clear
1:34 PM 86.0 °F 85.4 °F 59.0 °F 40% 29.81 in 10.0 mi NW 18.4 mph 24.2 mph N/A   Clear
1:53 PM 86.0 °F 85.4 °F 59.0 °F 40% 29.81 in 10.0 mi WNW 17.3 mph 21.9 mph N/A   Clear
2:14 PM 86.0 °F 84.9 °F 57.2 °F 37% 29.82 in 10.0 mi NW 17.3 mph - N/A   Clear
2:32 PM 86.0 °F 84.9 °F 57.2 °F 37% 29.82 in 10.0 mi NW 20.7 mph 26.5 mph N/A   Clear
2:54 PM 86.0 °F 84.9 °F 57.2 °F 37% 29.83 in 10.0 mi WNW 17.3 mph 28.8 mph N/A   Clear
3:14 PM 86.0 °F 84.9 °F 57.2 °F 37% 29.82 in 10.0 mi NW 23.0 mph 28.8 mph N/A   Clear
3:31 PM 86.0 °F 84.5 °F 55.4 °F 35% 29.82 in 10.0 mi WNW 15.0 mph 27.6 mph N/A   Clear
3:54 PM 87.8 °F 86.5 °F 57.2 °F 35% 29.82 in 10.0 mi WNW 15.0 mph 21.9 mph N/A   Clear
4:13 PM 86.0 °F 84.2 °F 53.6 °F 33% 29.83 in 10.0 mi WNW 17.3 mph 24.2 mph N/A   Clear
4:34 PM 87.8 °F - 51.8 °F 29% 29.83 in 10.0 mi NW 18.4 mph 28.8 mph N/A   Clear
4:54 PM 86.0 °F 84.2 °F 53.6 °F 33% 29.83 in 10.0 mi WNW 17.3 mph - N/A   Clear
5:13 PM 87.8 °F - 51.8 °F 29% 29.83 in 10.0 mi NW 18.4 mph 23.0 mph N/A   Clear
5:33 PM 86.0 °F - 51.8 °F 31% 29.83 in 10.0 mi NW 18.4 mph 23.0 mph N/A   Clear
5:54 PM 87.8 °F - 50.0 °F 27% 29.83 in 10.0 mi WNW 15.0 mph 19.6 mph N/A   Clear
6:14 PM 86.0 °F - 51.8 °F 31% 29.84 in 10.0 mi NW 12.7 mph 18.4 mph N/A   Clear
6:34 PM 86.0 °F 84.2 °F 53.6 °F 33% 29.84 in 10.0 mi NW 11.5 mph 16.1 mph N/A   Clear
6:54 PM 86.0 °F 84.2 °F 53.6 °F 33% 29.84 in 10.0 mi NNW 11.5 mph - N/A   Clear
7:14 PM 86.0 °F - 50.0 °F 29% 29.84 in 10.0 mi WNW 9.2 mph - N/A   Clear
7:34 PM 84.2 °F - 51.8 °F 33% 29.85 in 10.0 mi NW 8.1 mph - N/A   Clear
7:54 PM 82.4 °F 81.7 °F 55.4 °F 39% 29.85 in 10.0 mi NW 6.9 mph - N/A   Clear
8:14 PM 82.4 °F 82.0 °F 57.2 °F 42% 29.84 in 10.0 mi NW 5.8 mph - N/A   Clear
8:34 PM 80.6 °F 81.1 °F 59.0 °F 48% 29.85 in 10.0 mi NW 5.8 mph - N/A   Clear
8:54 PM 78.8 °F - 59.0 °F 51% 29.86 in 10.0 mi NNW 8.1 mph - N/A   Clear
9:14 PM 77.0 °F - 60.8 °F 57% 29.86 in 10.0 mi WNW 4.6 mph - N/A   Clear
9:33 PM 75.2 °F - 59.0 °F 57% 29.87 in 10.0 mi NW 4.6 mph - N/A   Clear
9:54 PM 73.4 °F - 59.0 °F 61% 29.88 in 10.0 mi NW 4.6 mph - N/A   Scattered Clouds
10:14 PM 73.4 °F - 60.8 °F 65% 29.88 in 10.0 mi West 4.6 mph - N/A   Clear
10:33 PM 73.4 °F - 59.0 °F 61% 29.88 in 10.0 mi West 3.5 mph - N/A   Clear
10:54 PM 73.4 °F - 59.0 °F 61% 29.88 in 10.0 mi Calm Calm - N/A   Scattered Clouds
11:14 PM 71.6 °F - 60.8 °F 69% 29.90 in 10.0 mi WSW 4.6 mph - N/A   Clear
11:33 PM 71.6 °F - 59.0 °F 64% 29.90 in 10.0 mi West 3.5 mph - N/A   Clear
11:54 PM 71.6 °F - 59.0 °F 64% 29.90 in 10.0 mi Calm Calm - N/A   Clear